Regional Weather Roundup
Issued by NWS

Home | Current Version | Previous Version | Graphics & Text | Print | Product List | Glossary On
Versions: 1 2 3 4 5 6 7 8 9 10 11 12 13 14 15 16 17 18 19 20 21 22 23 24 25 26 27 28 29 30 31 32 33 34 35 36 37 38 39 40 41 42 43 44 45 46 47 48
450
ASUS44 KJAN 041110
RWRMS

MISSISSIPPI HOURLY WEATHER ROUNDUP
NATIONAL WEATHER SERVICE JACKSON MS
500 AM CST WED MAR 04 2015

NOTE: "FAIR: INDICATES FEW OR NO CLOUDS BELOW 12,000 FEET WITH NO
SIGNIFICANT WEATHER AND/OR OBSTRUCTIONS TO VISIBILITY.

MSZ001>002-007>008-010>013-018>021-025>028-034>036-041200-
NORTHWEST MISSISSIPPI

CITY           SKY/WX    TMP DP  RH WIND       PRES   REMARKS
CLARKSDALE     CLOUDY    64  64 100 S13G18    29.89R
CLEVELAND      CLOUDY    62  62 100 SW7       29.89R
GREENWOOD      CLOUDY    67  64  90 S17       29.89F
GREENVILLE     MOCLDY    66  63  90 S17       29.88R
OLIVE BRANCH   CLOUDY    64 N/A N/A SW16      29.86R
OXFORD         CLOUDY    64  63  94 SW9G17    29.90R
TUNICA         CLOUDY    63  61  94 S15       29.87S
$$

MSZ003>006-009-014>017-022>024-029>033-037>039-041200-
NORTHEAST MISSISSIPPI

CITY           SKY/WX    TMP DP  RH WIND       PRES   REMARKS
COLUMBUS AFB   CLOUDY    64  64 100 S10       29.94R
CORINTH        CLOUDY    68  63  83 SW13      29.87R
GOLDN TRIANGLE MOCLDY    64  61  88 S10       29.94S
STARKVILLE     CLOUDY    64  63  94 S5        29.94S
TUPELO         CLOUDY    65  63  93 SW8       29.91S
$$

MSZ040-058-041200-
CENTRAL MISSISSIPPI

CITY           SKY/WX    TMP DP  RH WIND       PRES   REMARKS
JACKSON INTL   CLOUDY    67  65  93 S7        29.95F
JACKSON HAWKNS MOCLDY    66  64  93 S7        29.95F
MERIDIAN KEY   LGT RAIN  65  64  97 S8        29.98S
MERIDIAN NAS   CLOUDY    66  63  90 S5        29.99S
VICKSBURG      CLOUDY    65  63  93 S5        29.92F FOG
$$

MSZ059>079-041200-
SOUTH MISSISSIPPI

CITY           SKY/WX    TMP DP  RH WIND       PRES   REMARKS
BROOKHAVEN     PTSUNNY   66  66 100 S3        29.99R
HATTIESBURG    MOCLDY    68  66  93 S6        30.00R
MCCOMB         CLOUDY    67  67 100 SW3       29.97S FOG
NATCHEZ        CLOUDY    68  64  88 S10       29.95R
PINE BELT      CLOUDY    66  63  88 S5        30.00S
$$

MSZ080>082-041200-
COASTAL MISSISSIPPI

CITY           SKY/WX    TMP DP  RH WIND       PRES   REMARKS
BILOXI         MOCLDY    66  66 100 S9        29.99R
PASCAGOULA     CLOUDY    66  65  96 SE7       30.00S
GULFPORT       FOG       64  63  96 SE8       29.99S VSB 1/2
$$



USA.gov is the U.S. government's official web portal to all federal, state and local government web resources and services.